< Cyclone 199909 1999 Season Cyclone 199911 >
Cyclone 199910 (VANCE)
General InformationTrack Information on Google MapsDetailed Wind InformationList of All Images || ResourceGoogle EarthGE AnimationAtom FeedGeoJSON
Detalied Best Track (Time Zone = UTC)
Year Month Day Hour Lat. Long. Pressure (hPa) Wind (kt) Class Image Chart
1999 3 14 12 -12.4 131.5 1005 19 2 Image --
1999 3 14 18 -12.3 131.9 1003 23 2 Image --
1999 3 15 00 -12.2 132.0 1004 21 2 Image --
1999 3 15 06 -11.9 131.9 1001 25 2 Image --
1999 3 15 12 -11.8 132.0 1003 23 2 Image --
1999 3 15 18 -11.7 132.2 1001 25 2 Image --
1999 3 16 00 -11.7 132.3 1002 23 2 Image --
1999 3 16 06 -11.9 131.5 1001 25 2 Image --
1999 3 16 12 -12.1 131.1 1003 23 2 Image --
1999 3 16 18 -12.2 130.7 1002 23 2 Image --
1999 3 17 00 -12.2 130.2 1002 23 2 Image --
1999 3 17 06 -12.2 129.7 1000 27 2 Image --
1999 3 17 12 -12.3 129.0 1000 27 2 Image --
1999 3 17 18 -12.4 127.8 998 29 2 Image --
1999 3 18 00 -12.5 126.7 994 35 3 Image --
1999 3 18 03 -12.5 126.2 990 41 3 Image --
1999 3 18 06 -12.5 125.7 988 45 3 Image --
1999 3 18 09 -12.4 124.9 986 47 3 Image --
1999 3 18 12 -12.4 124.3 984 49 4 Image --
1999 3 18 16 -12.7 123.8 980 54 4 Image --
1999 3 18 19 -13.0 123.2 975 60 4 Image --
1999 3 18 22 -13.2 122.3 970 64 5 Image --
1999 3 19 01 -13.3 121.7 965 70 5 Image --
1999 3 19 04 -13.4 121.1 960 76 5 Image --
1999 3 19 07 -13.6 120.5 960 76 5 Image --
1999 3 19 10 -13.9 120.1 955 80 5 Image --
1999 3 19 13 -14.2 119.7 955 80 5 Image --
1999 3 19 16 -14.5 119.2 950 84 5 Image --
1999 3 19 19 -14.8 118.7 950 84 5 Image --
1999 3 19 22 -15.2 118.3 945 89 5 Image --
1999 3 20 01 -15.5 117.8 945 89 5 Image --
1999 3 20 04 -15.7 117.4 940 93 5 Image --
1999 3 20 07 -15.9 117.1 935 97 5 Image --
1999 3 20 10 -16.2 117.0 930 101 5 Image --
1999 3 20 13 -16.5 116.8 925 105 5 Image --
1999 3 20 16 -16.9 116.5 920 107 5 Image --
1999 3 20 19 -17.2 116.2 910 115 5 Image --
1999 3 20 22 -17.5 115.9 910 115 5 Image --
1999 3 21 01 -17.9 115.6 915 111 5 Image --
1999 3 21 04 -18.1 115.3 915 111 5 Image --
1999 3 21 07 -18.4 115.0 920 107 5 Image --
1999 3 21 10 -18.8 114.9 920 107 5 Image --
1999 3 21 11 -18.9 114.8 920 107 5 Image --
1999 3 21 12 -19.1 114.8 920 107 5 Image --
1999 3 21 13 -19.3 114.7 920 107 5 Image --
1999 3 21 14 -19.4 114.6 920 107 5 Image --
1999 3 21 15 -19.5 114.6 920 107 5 Image --
1999 3 21 16 -19.6 114.5 920 107 5 Image --
1999 3 21 17 -19.8 114.5 920 107 5 Image --
1999 3 21 18 -19.9 114.5 920 107 5 Image --
1999 3 21 19 -20.2 114.5 920 107 5 Image --
1999 3 21 20 -20.4 114.5 920 107 5 Image --
1999 3 21 21 -20.6 114.5 920 107 5 Image --
1999 3 21 22 -20.8 114.5 920 107 5 Image --
1999 3 21 23 -21.0 114.5 920 107 5 Image --
1999 3 22 00 -21.3 114.5 920 107 5 Image --
1999 3 22 01 -21.5 114.4 920 107 5 Image --
1999 3 22 02 -21.8 114.4 920 107 5 Image --
1999 3 22 03 -22.0 114.4 920 107 5 Image --
1999 3 22 04 -22.3 114.3 925 105 5 Image --
1999 3 22 05 -22.6 114.4 930 101 5 Image --
1999 3 22 06 -22.8 114.4 935 97 5 Image --
1999 3 22 07 -23.1 114.4 935 97 5 Image --
1999 3 22 08 -23.3 114.5 940 93 5 Image --
1999 3 22 09 -23.6 114.6 940 93 5 Image --
1999 3 22 10 -23.9 114.8 945 89 5 Image --
1999 3 22 11 -24.1 114.9 945 89 5 Image --
1999 3 22 12 -24.4 115.1 950 84 5 Image --
1999 3 22 13 -24.7 115.3 950 84 5 Image --
1999 3 22 14 -25.0 115.5 955 80 5 Image --
1999 3 22 15 -25.3 115.7 955 80 5 Image --
1999 3 22 16 -25.6 116.0 960 76 5 Image --
1999 3 22 19 -26.2 116.5 970 64 5 Image --
1999 3 22 22 -27.0 117.3 975 60 4 Image --
1999 3 23 01 -28.0 118.3 980 54 4 Image --
1999 3 23 04 -29.3 120.0 985 49 4 Image --
1999 3 23 07 -30.5 122.0 988 45 3 Image --
1999 3 23 10 -31.4 124.0 990 41 3 Image --
1999 3 23 13 -32.2 126.1 990 41 3 Image --
1999 3 23 16 -33.1 128.3 990 41 3 Image --
1999 3 23 22 -35.1 133.0 990 41 3 Image --
< Cyclone 199909 1999 Season Cyclone 199911 >

Help